Wetterdaten: Woche 02.10.06 - 08.10.06 (KW40)
Datum Zeit Temperatur Luftfeuchte Luftdruck Niederschlag Windrichtung Wind
02.10.2006 00:00 14,6 C 100 % 1018 hPa 1,0 l/m S-SW 10,9 km/h (2 Bft)
02.10.2006 01:00 14,7 C 100 % 1018 hPa 1,0 l/m S-SW 7,7 km/h (2 Bft)
02.10.2006 02:00 14,6 C 100 % 1018 hPa 0,0 l/m S-SW 9,6 km/h (2 Bft)
02.10.2006 03:00 14,6 C 100 % 1018 hPa 0,0 l/m S-SW 8,1 km/h (2 Bft)
02.10.2006 04:00 14,3 C 100 % 1018 hPa 0,0 l/m S-SW 9,8 km/h (2 Bft)
02.10.2006 05:00 14,1 C 100 % 1018 hPa 0,0 l/m S-SW 10,0 km/h (2 Bft)
02.10.2006 06:00 13,8 C 100 % 1018 hPa 0,0 l/m S-SW 8,8 km/h (2 Bft)
02.10.2006 07:00 13,6 C 100 % 1018 hPa 0,0 l/m S-SW 8,7 km/h (2 Bft)
02.10.2006 08:00 13,5 C 100 % 1018 hPa 0,0 l/m S-SW 8,1 km/h (2 Bft)
02.10.2006 09:00 14,6 C 98 % 1017 hPa 0,0 l/m S 11,6 km/h (2 Bft)
02.10.2006 10:00 16,4 C 86 % 1017 hPa 0,0 l/m S 12,3 km/h (3 Bft)
02.10.2006 11:00 17,7 C 79 % 1017 hPa 0,0 l/m S 11,3 km/h (2 Bft)
02.10.2006 12:00 18,5 C 77 % 1017 hPa 0,0 l/m S 12,0 km/h (2 Bft)
02.10.2006 13:00 19,6 C 70 % 1016 hPa 0,0 l/m S-SW 11,0 km/h (2 Bft)
02.10.2006 14:00 19,5 C 70 % 1016 hPa 0,0 l/m SW 5,9 km/h (2 Bft)
02.10.2006 15:00 19,6 C 69 % 1015 hPa 0,0 l/m S-SW 6,4 km/h (2 Bft)
02.10.2006 16:00 19,1 C 73 % 1014 hPa 0,0 l/m S-SW 6,9 km/h (2 Bft)
02.10.2006 17:00 18,6 C 75 % 1014 hPa 0,0 l/m S 4,4 km/h (1 Bft)
02.10.2006 18:00 17,9 C 83 % 1013 hPa 0,0 l/m S 2,7 km/h (1 Bft)
02.10.2006 19:00 16,7 C 89 % 1013 hPa 0,0 l/m N 0,0 km/h (0 Bft)
02.10.2006 20:00 15,7 C 95 % 1013 hPa 0,0 l/m N 0,0 km/h (0 Bft)
02.10.2006 21:00 15,4 C 98 % 1012 hPa 0,0 l/m S 0,3 km/h (0 Bft)
02.10.2006 22:00 15,4 C 99 % 1012 hPa 0,0 l/m S 6,2 km/h (2 Bft)
02.10.2006 23:00 15,3 C 99 % 1011 hPa 0,0 l/m S 2,2 km/h (1 Bft)
03.10.2006 00:00 15,6 C 98 % 1011 hPa 0,0 l/m W-SW 1,3 km/h (1 Bft)
03.10.2006 01:00 15,2 C 98 % 1010 hPa 0,0 l/m W-NW 3,6 km/h (1 Bft)
03.10.2006 02:00 14,8 C 99 % 1010 hPa 0,0 l/m N 0,0 km/h (0 Bft)
03.10.2006 03:00 14,5 C 100 % 1009 hPa 0,0 l/m N 0,0 km/h (0 Bft)
03.10.2006 04:00 14,2 C 100 % 1008 hPa 0,0 l/m W-NW 0,2 km/h (0 Bft)
03.10.2006 05:00 13,9 C 100 % 1008 hPa 0,0 l/m NW 5,1 km/h (1 Bft)
03.10.2006 06:00 13,7 C 100 % 1007 hPa 0,0 l/m W-NW 0,9 km/h (0 Bft)
03.10.2006 07:00 13,3 C 100 % 1007 hPa 0,0 l/m NW 4,5 km/h (1 Bft)
03.10.2006 08:00 13,2 C 100 % 1007 hPa 0,0 l/m W-NW 0,9 km/h (0 Bft)
03.10.2006 09:00 13,7 C 100 % 1007 hPa 0,0 l/m O 1,2 km/h (1 Bft)
03.10.2006 10:00 14,3 C 100 % 1006 hPa 0,0 l/m S 2,9 km/h (1 Bft)
03.10.2006 11:00 15,7 C 100 % 1005 hPa 0,0 l/m S 4,7 km/h (1 Bft)
03.10.2006 12:00 17,8 C 88 % 1004 hPa 0,0 l/m S 5,5 km/h (1 Bft)
03.10.2006 13:00 18,9 C 79 % 1003 hPa 0,0 l/m W-SW 3,2 km/h (1 Bft)
03.10.2006 14:00 18,1 C 82 % 1002 hPa 0,0 l/m S 1,5 km/h (1 Bft)
03.10.2006 15:00 18,3 C 81 % 1002 hPa 0,0 l/m W-SW 6,2 km/h (2 Bft)
03.10.2006 16:00 17,7 C 86 % 1004 hPa 7,0 l/m SW 7,0 km/h (2 Bft)
03.10.2006 17:00 15,8 C 96 % 1005 hPa 3,0 l/m W 8,6 km/h (2 Bft)
03.10.2006 18:00 15,0 C 99 % 1005 hPa 2,0 l/m S-SW 8,3 km/h (2 Bft)
03.10.2006 19:00 14,3 C 98 % 1005 hPa 0,0 l/m S 9,7 km/h (2 Bft)
03.10.2006 20:00 13,8 C 89 % 1005 hPa 0,0 l/m SW 15,4 km/h (3 Bft)
03.10.2006 21:00 13,6 C 74 % 1007 hPa 0,0 l/m S 21,9 km/h (4 Bft)
03.10.2006 22:00 12,7 C 71 % 1008 hPa 1,0 l/m S 25,4 km/h (4 Bft)
03.10.2006 23:00 11,9 C 73 % 1009 hPa 0,0 l/m S 22,3 km/h (4 Bft)
04.10.2006 00:00 11,6 C 76 % 1011 hPa 0,0 l/m S 16,7 km/h (3 Bft)
04.10.2006 01:00 11,2 C 73 % 1012 hPa 0,0 l/m S 15,0 km/h (3 Bft)
04.10.2006 02:00 10,4 C 76 % 1012 hPa 0,0 l/m S 11,5 km/h (2 Bft)
04.10.2006 03:00 9,5 C 88 % 1013 hPa 0,0 l/m SO 10,4 km/h (2 Bft)
04.10.2006 04:00 9,4 C 89 % 1013 hPa 0,0 l/m SO 9,2 km/h (2 Bft)
04.10.2006 05:00 9,1 C 90 % 1013 hPa 0,0 l/m SO 7,4 km/h (2 Bft)
04.10.2006 06:00 8,7 C 95 % 1013 hPa 0,0 l/m O-SO 7,2 km/h (2 Bft)
04.10.2006 07:00 9,1 C 95 % 1013 hPa 0,0 l/m SO 7,9 km/h (2 Bft)
04.10.2006 08:00 9,5 C 91 % 1014 hPa 0,0 l/m SO 8,5 km/h (2 Bft)
04.10.2006 09:00 10,0 C 88 % 1014 hPa 0,0 l/m SO 8,1 km/h (2 Bft)
04.10.2006 10:00 10,9 C 80 % 1014 hPa 0,0 l/m S 9,8 km/h (2 Bft)
04.10.2006 11:00 11,8 C 74 % 1015 hPa 0,0 l/m S 8,3 km/h (2 Bft)
04.10.2006 12:00 11,8 C 75 % 1015 hPa 0,0 l/m S 7,6 km/h (2 Bft)
04.10.2006 13:00 12,6 C 71 % 1015 hPa 0,0 l/m S-SW 8,7 km/h (2 Bft)
04.10.2006 14:00 13,4 C 66 % 1014 hPa 0,0 l/m S 6,6 km/h (2 Bft)
04.10.2006 15:00 12,7 C 69 % 1015 hPa 0,0 l/m S 9,2 km/h (2 Bft)
04.10.2006 16:00 11,9 C 77 % 1015 hPa 0,0 l/m S 3,3 km/h (1 Bft)
04.10.2006 17:00 11,3 C 82 % 1015 hPa 0,0 l/m S 5,4 km/h (1 Bft)
04.10.2006 18:00 10,7 C 84 % 1016 hPa 0,0 l/m SO 1,0 km/h (0 Bft)
04.10.2006 19:00 9,8 C 87 % 1017 hPa 0,0 l/m N 0,0 km/h (0 Bft)
04.10.2006 20:00 9,0 C 94 % 1017 hPa 0,0 l/m N 0,0 km/h (0 Bft)
04.10.2006 21:00 8,5 C 98 % 1017 hPa 0,0 l/m N 0,0 km/h (0 Bft)
04.10.2006 22:00 8,6 C 100 % 1018 hPa 0,0 l/m W-NW 0,4 km/h (0 Bft)
04.10.2006 23:00 8,8 C 100 % 1018 hPa 0,0 l/m N 0,0 km/h (0 Bft)
05.10.2006 00:00 8,7 C 100 % 1018 hPa 0,0 l/m N 0,0 km/h (0 Bft)
05.10.2006 01:00 8,1 C 100 % 1019 hPa 0,0 l/m N 0,0 km/h (0 Bft)
05.10.2006 02:00 7,8 C 100 % 1019 hPa 0,0 l/m N 0,0 km/h (0 Bft)
05.10.2006 03:00 8,2 C 100 % 1019 hPa 0,0 l/m S 1,7 km/h (1 Bft)
05.10.2006 04:00 8,3 C 100 % 1019 hPa 0,0 l/m N 0,0 km/h (0 Bft)
05.10.2006 05:00 8,0 C 100 % 1019 hPa 0,0 l/m SO 0,2 km/h (0 Bft)
05.10.2006 06:00 8,3 C 100 % 1020 hPa 0,0 l/m SO 0,9 km/h (0 Bft)
05.10.2006 07:00 8,5 C 100 % 1020 hPa 0,0 l/m N 0,0 km/h (0 Bft)
05.10.2006 08:00 8,7 C 100 % 1021 hPa 0,0 l/m N 0,1 km/h (0 Bft)
05.10.2006 09:00 9,2 C 99 % 1022 hPa 0,0 l/m SO 3,4 km/h (1 Bft)
05.10.2006 10:00 10,0 C 96 % 1022 hPa 0,0 l/m SO 3,0 km/h (1 Bft)
05.10.2006 11:00 11,5 C 76 % 1023 hPa 0,0 l/m S-SW 6,3 km/h (2 Bft)
05.10.2006 12:00 12,8 C 63 % 1023 hPa 0,0 l/m S 7,3 km/h (2 Bft)
05.10.2006 13:00 14,5 C 54 % 1023 hPa 0,0 l/m SW 6,7 km/h (2 Bft)
05.10.2006 14:00 12,8 C 67 % 1023 hPa 0,0 l/m S-SW 2,8 km/h (1 Bft)
05.10.2006 15:00 13,3 C 65 % 1023 hPa 0,0 l/m SW 5,7 km/h (1 Bft)
05.10.2006 16:00 13,5 C 61 % 1023 hPa 0,0 l/m S 8,8 km/h (2 Bft)
05.10.2006 17:00 12,6 C 66 % 1023 hPa 0,0 l/m S 3,8 km/h (1 Bft)
05.10.2006 18:00 11,8 C 73 % 1023 hPa 0,0 l/m S 4,1 km/h (1 Bft)
05.10.2006 19:00 10,0 C 82 % 1023 hPa 0,0 l/m S 3,9 km/h (1 Bft)
05.10.2006 20:00 9,3 C 83 % 1024 hPa 0,0 l/m S 5,9 km/h (2 Bft)
05.10.2006 21:00 9,3 C 83 % 1024 hPa 0,0 l/m S 6,0 km/h (2 Bft)
05.10.2006 22:00 9,2 C 83 % 1024 hPa 0,0 l/m SO 7,3 km/h (2 Bft)
05.10.2006 23:00 8,2 C 86 % 1024 hPa 0,0 l/m O 1,9 km/h (1 Bft)
06.10.2006 00:00 6,6 C 92 % 1024 hPa 0,0 l/m N 0,0 km/h (0 Bft)
06.10.2006 01:00 5,9 C 97 % 1023 hPa 0,0 l/m N 0,3 km/h (0 Bft)
06.10.2006 02:00 6,0 C 100 % 1023 hPa 0,0 l/m SO 1,8 km/h (1 Bft)
06.10.2006 03:00 6,1 C 100 % 1023 hPa 0,0 l/m O-SO 2,9 km/h (1 Bft)
06.10.2006 04:00 5,6 C 100 % 1023 hPa 0,0 l/m O-SO 5,0 km/h (1 Bft)
06.10.2006 05:00 6,0 C 100 % 1023 hPa 0,0 l/m SO 7,5 km/h (2 Bft)
06.10.2006 06:00 7,8 C 100 % 1022 hPa 0,0 l/m SO 9,3 km/h (2 Bft)
06.10.2006 07:00 8,3 C 97 % 1022 hPa 0,0 l/m SO 9,3 km/h (2 Bft)
06.10.2006 08:00 8,4 C 96 % 1022 hPa 0,0 l/m SO 8,6 km/h (2 Bft)
06.10.2006 09:00 9,1 C 93 % 1022 hPa 0,0 l/m O-SO 11,1 km/h (2 Bft)
06.10.2006 10:00 10,6 C 81 % 1022 hPa 0,0 l/m SO 10,2 km/h (2 Bft)
06.10.2006 11:00 12,8 C 70 % 1022 hPa 0,0 l/m S-SO 11,8 km/h (2 Bft)
06.10.2006 12:00 14,5 C 61 % 1021 hPa 0,0 l/m S-SO 13,3 km/h (3 Bft)
06.10.2006 13:00 15,1 C 60 % 1021 hPa 0,0 l/m S 11,1 km/h (2 Bft)
06.10.2006 14:00 15,9 C 58 % 1020 hPa 0,0 l/m SO 10,9 km/h (2 Bft)
06.10.2006 15:00 16,3 C 55 % 1019 hPa 0,0 l/m S-SO 10,5 km/h (2 Bft)
06.10.2006 16:00 15,5 C 61 % 1018 hPa 0,0 l/m SO 6,9 km/h (2 Bft)
06.10.2006 17:00 15,0 C 66 % 1018 hPa 0,0 l/m SO 4,6 km/h (1 Bft)
06.10.2006 18:00 13,9 C 75 % 1017 hPa 0,0 l/m N 0,0 km/h (0 Bft)
06.10.2006 19:00 12,2 C 84 % 1017 hPa 0,0 l/m O-SO 0,5 km/h (0 Bft)
06.10.2006 20:00 11,1 C 87 % 1017 hPa 0,0 l/m N 0,0 km/h (0 Bft)
06.10.2006 21:00 10,4 C 91 % 1017 hPa 0,0 l/m O 0,7 km/h (0 Bft)
06.10.2006 22:00 10,4 C 90 % 1016 hPa 0,0 l/m O-SO 2,8 km/h (1 Bft)
06.10.2006 23:00 9,8 C 91 % 1016 hPa 0,0 l/m SO 5,9 km/h (2 Bft)
07.10.2006 00:00 9,5 C 92 % 1015 hPa 0,0 l/m O-NO 1,2 km/h (1 Bft)
07.10.2006 01:00 8,8 C 95 % 1015 hPa 0,0 l/m O-SO 0,6 km/h (0 Bft)
07.10.2006 02:00 8,5 C 98 % 1015 hPa 0,0 l/m O-SO 3,0 km/h (1 Bft)
07.10.2006 03:00 9,6 C 95 % 1014 hPa 0,0 l/m SO 6,4 km/h (2 Bft)
07.10.2006 04:00 10,9 C 85 % 1014 hPa 0,0 l/m SO 6,4 km/h (2 Bft)
07.10.2006 05:00 10,1 C 96 % 1014 hPa 0,0 l/m SO 7,5 km/h (2 Bft)
07.10.2006 06:00 11,0 C 96 % 1014 hPa 0,0 l/m SO 7,9 km/h (2 Bft)
07.10.2006 07:00 10,9 C 99 % 1015 hPa 1,0 l/m SO 8,0 km/h (2 Bft)
07.10.2006 08:00 10,7 C 100 % 1016 hPa 1,0 l/m SO 9,7 km/h (2 Bft)
07.10.2006 09:00 11,1 C 100 % 1017 hPa 0,0 l/m SO 8,5 km/h (2 Bft)
07.10.2006 10:00 11,5 C 100 % 1017 hPa 0,0 l/m SO 8,9 km/h (2 Bft)
07.10.2006 11:00 11,9 C 97 % 1017 hPa 0,0 l/m S 9,6 km/h (2 Bft)
07.10.2006 12:00 12,8 C 89 % 1018 hPa 1,0 l/m S 11,7 km/h (2 Bft)
07.10.2006 13:00 13,8 C 71 % 1018 hPa 0,0 l/m S-SW 12,3 km/h (3 Bft)
07.10.2006 14:00 14,6 C 53 % 1019 hPa 0,0 l/m S-SW 13,8 km/h (3 Bft)
07.10.2006 15:00 15,3 C 48 % 1019 hPa 0,0 l/m S-SW 12,2 km/h (2 Bft)
07.10.2006 16:00 14,2 C 53 % 1020 hPa 0,0 l/m SW 13,4 km/h (3 Bft)
07.10.2006 17:00 13,1 C 60 % 1021 hPa 0,0 l/m S-SW 11,1 km/h (2 Bft)
07.10.2006 18:00 12,3 C 66 % 1021 hPa 0,0 l/m S-SW 8,1 km/h (2 Bft)
07.10.2006 19:00 11,7 C 71 % 1023 hPa 0,0 l/m S 8,1 km/h (2 Bft)
07.10.2006 20:00 11,3 C 73 % 1024 hPa 0,0 l/m S-SW 6,7 km/h (2 Bft)
07.10.2006 21:00 10,2 C 77 % 1024 hPa 0,0 l/m S-SW 2,3 km/h (1 Bft)
07.10.2006 22:00 8,8 C 85 % 1024 hPa 0,0 l/m O-SO 0,3 km/h (0 Bft)
07.10.2006 23:00 7,4 C 92 % 1025 hPa 0,0 l/m N 0,1 km/h (0 Bft)
08.10.2006 00:00 6,5 C 97 % 1025 hPa 0,0 l/m N 0,0 km/h (0 Bft)
08.10.2006 01:00 6,1 C 99 % 1025 hPa 0,0 l/m N 0,0 km/h (0 Bft)
08.10.2006 02:00 5,8 C 100 % 1025 hPa 0,0 l/m N 0,0 km/h (0 Bft)
08.10.2006 03:00 5,3 C 100 % 1025 hPa 0,0 l/m N 0,0 km/h (0 Bft)
08.10.2006 04:00 4,7 C 100 % 1025 hPa 0,0 l/m W-SW 0,3 km/h (0 Bft)
08.10.2006 05:00 4,6 C 100 % 1025 hPa 0,0 l/m N 0,0 km/h (0 Bft)
08.10.2006 06:00 4,2 C 100 % 1025 hPa 0,0 l/m N 0,0 km/h (0 Bft)
08.10.2006 07:00 3,8 C 100 % 1025 hPa 0,0 l/m N 0,0 km/h (0 Bft)
08.10.2006 08:00 4,3 C 100 % 1025 hPa 0,0 l/m N 0,0 km/h (0 Bft)
08.10.2006 09:00 7,1 C 100 % 1025 hPa 0,0 l/m W 1,4 km/h (1 Bft)
08.10.2006 10:00 10,1 C 92 % 1025 hPa 0,0 l/m NW 5,1 km/h (1 Bft)
08.10.2006 11:00 13,0 C 70 % 1025 hPa 0,0 l/m N-NO 8,3 km/h (2 Bft)
08.10.2006 12:00 14,5 C 55 % 1024 hPa 0,0 l/m N-NO 10,3 km/h (2 Bft)
08.10.2006 13:00 16,0 C 47 % 1024 hPa 0,0 l/m N-NO 11,0 km/h (2 Bft)
08.10.2006 14:00 17,0 C 46 % 1023 hPa 0,0 l/m N-NO 10,6 km/h (2 Bft)
08.10.2006 15:00 16,9 C 44 % 1023 hPa 0,0 l/m N-NO 13,5 km/h (3 Bft)
08.10.2006 16:00 15,9 C 47 % 1022 hPa 0,0 l/m N-NO 10,1 km/h (2 Bft)
08.10.2006 17:00 15,3 C 51 % 1022 hPa 0,0 l/m N 6,8 km/h (2 Bft)
08.10.2006 18:00 14,2 C 57 % 1022 hPa 0,0 l/m NW 2,7 km/h (1 Bft)
08.10.2006 19:00 11,6 C 71 % 1022 hPa 0,0 l/m N 0,0 km/h (0 Bft)
08.10.2006 20:00 9,6 C 82 % 1022 hPa 0,0 l/m N 0,0 km/h (0 Bft)
08.10.2006 21:00 8,9 C 89 % 1022 hPa 0,0 l/m N 0,0 km/h (0 Bft)
08.10.2006 22:00 8,4 C 93 % 1022 hPa 0,0 l/m N 0,0 km/h (0 Bft)
08.10.2006 23:00 7,6 C 94 % 1022 hPa 0,0 l/m N 0,0 km/h (0 Bft)
Min-Datum _ 08.10.06 08.10.06 03.10.06 - - 02.10.06
_ Min-Zeit 07:47 15:15 13:34 - - 01:05
Minimum _ 3,5 C 41 % 1002 hPa - - 0,0 km/h (0 Bft)
Max-Datum _ 02.10.06 02.10.06 07.10.06 03.10.06 - 03.10.06
_ Max-Zeit 13:44 00:00 23:04 16:58 - 22:51
Maximum _ 20,1 C 100 % 1025 hPa 7,0 l/m - 47,2 km/h
S (6 Bft)
Durchschnitt _ 11,9 C 85 % 1017 hPa #18,0 l/m S 5,8 km/h (2 Bft)

Durchschnitt Minimum Temp.11,5 C
Durchschnitt Maximum Temp.12,3 C